SB KEPS @ AMSAT $ORB11188.O Orbital Elements 11188.OSCAR
HR AMSAT ORBITAL ELEMENTS FOR OSCAR SATELLITES FROM WA5QGD FORT WORTH,TX July 7, 2011 Send Subscribe/unsubscribe to KEPS at http://www.amsat.org/mailman/listinfo/keps BID: ORB11188.O TO ALL RADIO AMATEURS BT
Satellite: AO-07 Catalog number: 07530 Epoch time: 11187.54893223 Element set: 0124 Inclination: 101.3916 deg RA of node: 193.3255 deg Eccentricity: 0.0011610 Arg of perigee: 241.4602 deg Mean anomaly: 118.5301 deg Mean motion: 12.53583034 rev/day Decay rate: -2.7e-07 rev/day^2 Epoch rev: 67661 Checksum: 260
Satellite: FO-29 Catalog number: 24278 Epoch time: 11187.94813439 Element set: 0618 Inclination: 098.5484 deg RA of node: 329.4133 deg Eccentricity: 0.0350246 Arg of perigee: 205.8788 deg Mean anomaly: 152.4458 deg Mean motion: 13.52962982 rev/day Decay rate: 5.0e-08 rev/day^2 Epoch rev: 73513 Checksum: 341
Satellite: SO-33 Catalog number: 25509 Epoch time: 11187.87363654 Element set: 5 Inclination: 031.4313 deg RA of node: 132.9604 deg Eccentricity: 0.0353018 Arg of perigee: 053.7793 deg Mean anomaly: 309.4960 deg Mean motion: 14.28426081 rev/day Decay rate: 1.70e-06 rev/day^2 Epoch rev: 66309 Checksum: 295
Satellite: RS-22 Catalog number: 27939 Epoch time: 11188.52751111 Element set: 421 Inclination: 097.8447 deg RA of node: 041.5515 deg Eccentricity: 0.0012359 Arg of perigee: 282.9820 deg Mean anomaly: 077.0013 deg Mean motion: 14.63607369 rev/day Decay rate: 2.63e-06 rev/day^2 Epoch rev: 41531 Checksum: 292
Satellite: VO-52 Catalog number: 28650 Epoch time: 11187.60646005 Element set: 839 Inclination: 097.6397 deg RA of node: 229.8685 deg Eccentricity: 0.0028182 Arg of perigee: 097.7130 deg Mean anomaly: 262.7314 deg Mean motion: 14.82103079 rev/day Decay rate: 1.49e-06 rev/day^2 Epoch rev: 33362 Checksum: 323
Satellite: SO-67 Catalog number: 35870 Epoch time: 11188.48570895 Element set: 4 Inclination: 097.2794 deg RA of node: 231.1688 deg Eccentricity: 0.0001668 Arg of perigee: 000.6416 deg Mean anomaly: 106.6988 deg Mean motion: 15.20847998 rev/day Decay rate: 1.142e-05 rev/day^2 Epoch rev: 10002 Checksum: 321
Satellite: HO-68 Catalog number: 36122 Epoch time: 11188.60878809 Element set: 534 Inclination: 100.4145 deg RA of node: 249.1105 deg Eccentricity: 0.0007515 Arg of perigee: 175.7161 deg Mean anomaly: 184.4021 deg Mean motion: 13.16286908 rev/day Decay rate: -4.4e-07 rev/day^2 Epoch rev: 7492 Checksum: 294
/EX SB KEPS @ AMSAT $ORB11188.D Orbital Elements 11188.MICROS
HR AMSAT ORBITAL ELEMENTS FOR THE MICROSATS FROM WA5QGD FORT WORTH,TX July 7, 2011 Send Subscribe/unsubscribe to KEPS at http://www.amsat.org/mailman/listinfo/keps BID: ORB11188.D TO ALL RADIO AMATEURS BT
Satellite: UO-11 Catalog number: 14781 Epoch time: 11188.75975432 Element set: 594 Inclination: 098.0047 deg RA of node: 245.4053 deg Eccentricity: 0.0010157 Arg of perigee: 073.3814 deg Mean anomaly: 286.8510 deg Mean motion: 14.79994819 rev/day Decay rate: 8.0e-08 rev/day^2 Epoch rev: 46883 Checksum: 333
Satellite: AO-16 Catalog number: 20439 Epoch time: 11187.86688936 Element set: 0238 Inclination: 098.3858 deg RA of node: 136.8284 deg Eccentricity: 0.0011789 Arg of perigee: 102.7420 deg Mean anomaly: 257.5081 deg Mean motion: 14.31927253 rev/day Decay rate: 2.4e-07 rev/day^2 Epoch rev: 12043 Checksum: 317
Satellite: LO-19 Catalog number: 20442 Epoch time: 11187.94329143 Element set: 0155 Inclination: 098.3466 deg RA of node: 141.1781 deg Eccentricity: 0.0012855 Arg of perigee: 097.5464 deg Mean anomaly: 262.7179 deg Mean motion: 14.32152423 rev/day Decay rate: -2.4e-07 rev/day^2 Epoch rev: 12062 Checksum: 291
Satellite: AO-27 Catalog number: 22825 Epoch time: 11187.96083355 Element set: 0872 Inclination: 098.5317 deg RA of node: 132.0082 deg Eccentricity: 0.0007871 Arg of perigee: 212.0417 deg Mean anomaly: 148.0294 deg Mean motion: 14.29352711 rev/day Decay rate: -7.0e-07 rev/day^2 Epoch rev: 92701 Checksum: 292
Satellite: IO-26 Catalog number: 22826 Epoch time: 11188.79652346 Element set: 603 Inclination: 098.5249 deg RA of node: 133.2940 deg Eccentricity: 0.0008225 Arg of perigee: 204.1904 deg Mean anomaly: 155.8904 deg Mean motion: 14.29616127 rev/day Decay rate: 3.3e-07 rev/day^2 Epoch rev: 92725 Checksum: 307
Satellite: GO-32 Catalog number: 25397 Epoch time: 11187.66748579 Element set: 521 Inclination: 098.3263 deg RA of node: 179.1881 deg Eccentricity: 0.0000717 Arg of perigee: 164.3419 deg Mean anomaly: 195.7788 deg Mean motion: 14.23212187 rev/day Decay rate: -3.2e-07 rev/day^2 Epoch rev: 67473 Checksum: 338
Satellite: NO-44 Catalog number: 26931 Epoch time: 11187.76907285 Element set: 0795 Inclination: 067.0535 deg RA of node: 293.0696 deg Eccentricity: 0.0006481 Arg of perigee: 255.9990 deg Mean anomaly: 104.0387 deg Mean motion: 14.29666464 rev/day Decay rate: -1.11e-06 rev/day^2 Epoch rev: 50972 Checksum: 339
Satellite: SO-50 Catalog number: 27607 Epoch time: 11187.70275348 Element set: 508 Inclination: 064.5588 deg RA of node: 268.3725 deg Eccentricity: 0.0074341 Arg of perigee: 317.0357 deg Mean anomaly: 042.4967 deg Mean motion: 14.71767388 rev/day Decay rate: 3.9e-07 rev/day^2 Epoch rev: 45896 Checksum: 347
Satellite: CO-55 Catalog number: 27844 Epoch time: 11187.54283907 Element set: 147 Inclination: 098.7062 deg RA of node: 195.9624 deg Eccentricity: 0.0010188 Arg of perigee: 137.7394 deg Mean anomaly: 222.4582 deg Mean motion: 14.20822669 rev/day Decay rate: 9.9e-07 rev/day^2 Epoch rev: 41566 Checksum: 339
Satellite: CO-57 Catalog number: 27848 Epoch time: 11187.70055251 Element set: 0098 Inclination: 098.7113 deg RA of node: 195.3123 deg Eccentricity: 0.0010127 Arg of perigee: 141.3827 deg Mean anomaly: 218.8080 deg Mean motion: 14.20600587 rev/day Decay rate: 4.9e-07 rev/day^2 Epoch rev: 41563 Checksum: 294
Satellite: AO-51 Catalog number: 28375 Epoch time: 11188.45922011 Element set: 14 Inclination: 098.0991 deg RA of node: 165.8390 deg Eccentricity: 0.0084815 Arg of perigee: 009.1752 deg Mean anomaly: 351.0964 deg Mean motion: 14.40766001 rev/day Decay rate: 5.9e-07 rev/day^2 Epoch rev: 36898 Checksum: 313
Satellite: CP3 Catalog number: 31129 Epoch time: 11187.78246519 Element set: 910 Inclination: 097.8973 deg RA of node: 210.8624 deg Eccentricity: 0.0104853 Arg of perigee: 120.1196 deg Mean anomaly: 241.0408 deg Mean motion: 14.52510033 rev/day Decay rate: 3.21e-06 rev/day^2 Epoch rev: 22368 Checksum: 275
Satellite: CO-65 Catalog number: 32785 Epoch time: 11187.72548890 Element set: 0037 Inclination: 097.8485 deg RA of node: 251.2455 deg Eccentricity: 0.0016117 Arg of perigee: 110.4207 deg Mean anomaly: 249.8737 deg Mean motion: 14.82037659 rev/day Decay rate: 7.7e-07 rev/day^2 Epoch rev: 17243 Checksum: 330
Satellite: PRISM Catalog number: 33493 Epoch time: 11188.48623977 Element set: 747 Inclination: 098.1274 deg RA of node: 317.3953 deg Eccentricity: 0.0019137 Arg of perigee: 339.5177 deg Mean anomaly: 020.5268 deg Mean motion: 14.81767078 rev/day Decay rate: 6.48e-06 rev/day^2 Epoch rev: 13252 Checksum: 335
Satellite: SOHLA-1 Catalog number: 33496 Epoch time: 11187.86301196 Element set: 456 Inclination: 098.0825 deg RA of node: 297.4977 deg Eccentricity: 0.0007653 Arg of perigee: 064.8336 deg Mean anomaly: 295.3662 deg Mean motion: 14.69631212 rev/day Decay rate: 1.26e-06 rev/day^2 Epoch rev: 13137 Checksum: 323
Satellite: TISAT-1 Catalog number: 36799 Epoch time: 11188.54636354 Element set: 21 Inclination: 098.1009 deg RA of node: 256.9998 deg Eccentricity: 0.0014603 Arg of perigee: 206.9755 deg Mean anomaly: 153.0704 deg Mean motion: 14.80606212 rev/day Decay rate: 5.35e-06 rev/day^2 Epoch rev: 5332 Checksum: 302
Satellite: STUDSAT Catalog number: 36801 Epoch time: 11188.75571284 Element set: 208 Inclination: 098.1047 deg RA of node: 257.0895 deg Eccentricity: 0.0012935 Arg of perigee: 195.2510 deg Mean anomaly: 164.8314 deg Mean motion: 14.80739063 rev/day Decay rate: 1.397e-05 rev/day^2 Epoch rev: 5334 Checksum: 305
Satellite: RAX Catalog number: 37223 Epoch time: 11152.36844328 Element set: 0173 Inclination: 071.9713 deg RA of node: 073.6151 deg Eccentricity: 0.0021634 Arg of perigee: 311.5989 deg Mean anomaly: 048.3343 deg Mean motion: 14.77415682 rev/day Decay rate: 6.35e-06 rev/day^2 Epoch rev: 02854 Checksum: 291
Satellite: OOREOS Catalog number: 37224 Epoch time: 11153.29456974 Element set: 0179 Inclination: 071.9726 deg RA of node: 071.8135 deg Eccentricity: 0.0020315 Arg of perigee: 307.7637 deg Mean anomaly: 052.1684 deg Mean motion: 14.77036357 rev/day Decay rate: 4.92e-06 rev/day^2 Epoch rev: 02867 Checksum: 309
Satellite: FO-69 Catalog number: 37227 Epoch time: 11188.44951600 Element set: 0074 Inclination: 071.9698 deg RA of node: 354.5874 deg Eccentricity: 0.0018546 Arg of perigee: 245.7889 deg Mean anomaly: 114.1347 deg Mean motion: 14.76607631 rev/day Decay rate: 1.85e-06 rev/day^2 Epoch rev: 01231 Checksum: 331
Satellite: NANOSALD Catalog number: 37361 Epoch time: 11187.49898783 Element set: 0269 Inclination: 071.9652 deg RA of node: 349.5955 deg Eccentricity: 0.0046495 Arg of perigee: 101.0096 deg Mean anomaly: 259.6363 deg Mean motion: 15.04282256 rev/day Decay rate: 6.1469e-04 rev/day^2 Epoch rev: 02502 Checksum: 337
Satellite: FO-70 Catalog number: 37380 Epoch time: 11188.46639112 Element set: 0209 Inclination: 071.9736 deg RA of node: 354.6825 deg Eccentricity: 0.0019081 Arg of perigee: 242.6397 deg Mean anomaly: 117.2826 deg Mean motion: 14.76372941 rev/day Decay rate: 9.5e-07 rev/day^2 Epoch rev: 03385 Checksum: 323
/EX SB KEPS @ AMSAT $ORB11188.W Orbital Elements 11188.WEATHER
HR AMSAT ORBITAL ELEMENTS FOR WEATHER SATELLITES FROM WA5QGD FORT WORTH,TX July 7, 2011 Send Subscribe/unsubscribe to KEPS at http://www.amsat.org/mailman/listinfo/keps BID: ORB11188.W TO ALL RADIO AMATEURS BT
